Location: Eurasberg
(48.3353°N, 11.0839°E)
Time: 10:47:39
(UTC+00:00)

Cosmos 2218 Rocket - Pass Details

Date: 18 January 2026
Orbit: 955 x 1005 km, 82.9° (Epoch: 10 February)

Event Time Altitude Azimuth Distance (km) Brightness Sun altitude
Rises 06:00:40 0° 192° (SSW) 3,672 7.1 -9.7°
Reaches altitude 10° 06:03:10 10° 194° (SSW) 2,735 6.4 -9.3°
Maximum altitude 06:09:27 76° 280° (W) 1,028 4.0 -8.3°
Drops below altitude 10° 06:15:52 10° 7° (N) 2,783 6.2 -7.3°
Sets 06:18:26 0° 9° (N) 3,740 6.9 -6.9°
